Waarnemingen

Advertentie
Mijn weer
Westdorpe aws, Nederland (6319): temperatuur & dauwpunt: 16.02.2017 11:00:00 - 22.02.2017 11:00:00 (CET)Westdorpe aws, Nederland (6319): temperatuur 5cm: 16.02.2017 11:00:00 - 22.02.2017 11:00:00 (CET)Westdorpe aws, Nederland (6319): windsnelheid & windstoten: 16.02.2017 11:00:00 - 22.02.2017 11:00:00 (CET)Westdorpe aws, Nederland (6319): windrichting: 16.02.2017 11:00:00 - 22.02.2017 11:00:00 (CET)Westdorpe aws, Nederland (6319): luchtdruk: 16.02.2017 11:00:00 - 22.02.2017 11:00:00 (CET)Westdorpe aws, Nederland (6319): zicht: 16.02.2017 11:00:00 - 22.02.2017 11:00:00 (CET)Westdorpe aws, Nederland (6319): neerslag: 16.02.2017 11:00:00 - 22.02.2017 11:00:00 (CET)
Datum & Tijd tt [°C] td [°C] tt 5cm [°C] ff [km/u] ff [kn] fx [km/u] fx [kn] dd ppp [hPa] vv [km] rr [mm]
22.02.2017 11:00:00 10,9 8,5 10,4 36 19 50 27 WZW 1009,2 18 0,0
22.02.2017 10:00:00 10,5 8,5 10,1 36 19 54 29 ZW 1009,4 10 0,0
22.02.2017 09:00:00 10,3 8,5 9,8 32 18 50 27 WZW 1009,4 6 0,2
22.02.2017 08:00:00 10,5 8,3 9,8 32 18 50 27 WZW 1009,3 14 0,1
22.02.2017 07:00:00 10,6 8,1 9,9 36 19 54 29 WZW 1009,1 18 0,1
22.02.2017 06:00:00 10,4 8,3 9,8 36 19 50 27 WZW 1008,9 10 0,0
22.02.2017 05:00:00 10,4 8,3 10,0 40 21 58 31 WZW 1009,0 19 0,0
22.02.2017 04:00:00 10,1 8,2 9,6 32 18 54 29 ZW 1009,7 26 0,0
22.02.2017 03:00:00 10,5 7,8 9,9 40 21 58 31 ZW 1010,7 30 0,0
22.02.2017 02:00:00 10,3 8,6 9,8 36 19 58 31 ZW 1011,1 44 0,0
22.02.2017 01:00:00 10,3 8,8 9,9 36 19 54 29 ZW 1011,9 41 0,0
22.02.2017 00:00:00 10,5 8,9 10,1 32 18 50 27 ZW 1012,2 41 0,0
21.02.2017 23:00:00 10,4 9,0 10,0 32 18 50 27 ZW 1012,6 24 0,0
21.02.2017 22:00:00 10,4 8,9 9,8 32 18 47 25 ZW 1013,2 21 0,0
21.02.2017 21:00:00 10,4 9,2 9,9 29 16 43 23 ZW 1013,6 10 0,0
21.02.2017 20:00:00 10,5 9,5 10,1 25 14 40 21 ZW 1014,0 10 0,0
21.02.2017 19:00:00 10,5 9,6 10,2 22 12 32 18 ZW 1014,7 5 0,0
21.02.2017 18:00:00 10,9 9,5 10,3 18 10 25 14 ZZW 1015,0 14 0,0
21.02.2017 17:00:00 11,0 9,6 10,7 18 10 25 14 ZW 1015,4 10 0,0
21.02.2017 16:00:00 11,5 9,8 11,5 14 8 18 10 W 1016,0 23 0,0
21.02.2017 15:00:00 11,0 9,7 11,0 11 6 14 8 WNW 1016,6 10 0,0
21.02.2017 14:00:00 10,3 8,4 10,6 14 8 22 12 WNW 1017,2 17 0,0
21.02.2017 13:00:00 11,0 9,7 11,4 14 8 25 14 W 1017,5 14 0,0
21.02.2017 12:00:00 10,6 9,7 10,7 18 10 25 14 W 1017,6 7 0,0
21.02.2017 11:00:00 10,2 9,6 10,0 14 8 25 14 W 1017,5 3,5 1,5
21.02.2017 10:00:00 10,3 9,0 10,0 18 10 25 14 W 1017,3 9 0,0
21.02.2017 09:00:00 10,2 9,0 9,8 18 10 25 14 WZW 1016,8 12 0,0
21.02.2017 08:00:00 10,1 9,0 9,6 18 10 29 16 WZW 1016,2 10 0,2
21.02.2017 07:00:00 10,2 8,8 9,4 18 10 25 14 WZW 1016,0 13 0,0
21.02.2017 06:00:00 10,2 8,9 9,5 18 10 29 16 W 1015,8 11 0,0
21.02.2017 05:00:00 10,6 9,3 10,0 22 12 29 16 W 1016,2 12 0,0
21.02.2017 04:00:00 10,6 9,4 10,1 22 12 29 16 WZW 1016,0 15 0,0
21.02.2017 03:00:00 10,6 9,9 10,1 14 8 29 16 WZW 1016,3 9 0,4
21.02.2017 02:00:00 10,6 9,9 10,2 22 12 25 14 WZW 1016,4 6 0,1
21.02.2017 01:00:00 10,4 10,0 10,2 22 12 29 16 WZW 1016,4 3,6 0,4
21.02.2017 00:00:00 10,4 9,8 10,2 18 10 29 16 WZW 1016,4 2,8 0,0
20.02.2017 23:00:00 10,6 9,7 10,3 18 10 32 18 WZW 1016,3 5 0,0
20.02.2017 22:00:00 10,6 9,6 10,2 22 12 36 19 ZW 1016,2 8 0,0
20.02.2017 21:00:00 10,3 9,3 9,8 25 14 40 21 WZW 1016,3 10 0,0
20.02.2017 20:00:00 10,8 9,5 10,2 25 14 40 21 ZW 1016,1 13 0,0
20.02.2017 19:00:00 10,9 9,8 10,1 22 12 32 18 ZW 1016,1 13 0,0
20.02.2017 18:00:00 11,3 10,1 10,8 25 14 40 21 ZW 1015,9 16 0,0
20.02.2017 17:00:00 11,1 10,1 10,9 22 12 36 19 ZW 1016,0 17 0,0
20.02.2017 16:00:00 11,0 10,1 10,8 22 12 36 19 WZW 1016,5 12 0,0
20.02.2017 15:00:00 10,9 10,1 10,8 25 14 40 21 ZW 1016,3 9 0,0
20.02.2017 14:00:00 10,5 9,8 10,4 25 14 36 19 ZW 1016,8 9 0,0
20.02.2017 13:00:00 10,0 9,5 10,1 25 14 36 19 WZW 1017,7 2,3 0,0
20.02.2017 12:00:00 9,9 9,4 10,0 22 12 36 19 ZW 1018,0 3,4 0,0
20.02.2017 11:00:00 9,2 8,8 9,1 22 12 32 18 ZW 1018,5 5 0,0
20.02.2017 10:00:00 8,9 8,5 8,9 22 12 36 19 ZW 1018,4 4,4 0,0
20.02.2017 09:00:00 8,7 8,2 8,5 22 12 32 18 ZW 1018,5 6 0,0
20.02.2017 08:00:00 8,7 8,0 8,3 25 14 36 19 ZW 1018,7 9 0,0
20.02.2017 07:00:00 8,4 7,9 8,1 18 10 29 16 ZW 1018,7 4,2 0,0
20.02.2017 06:00:00 8,5 8,0 8,2 18 10 29 16 ZW 1019,5 4,8 0,0
20.02.2017 05:00:00 8,2 7,8 7,9 18 10 25 14 ZZW 1019,2 2,5 0,1
20.02.2017 04:00:00 8,0 7,5 7,8 18 10 29 16 ZW 1019,8 3,1 0,0
20.02.2017 03:00:00 7,9 7,1 7,6 22 12 29 16 ZZW 1020,3 5 0,0
20.02.2017 02:00:00 7,9 6,7 7,4 14 8 22 12 ZZW 1021,3 7 0,0
20.02.2017 01:00:00 7,3 6,8 7,2 14 8 22 12 ZZW 1021,8 2,1 0,0
20.02.2017 00:00:00 7,8 6,5 7,5 14 8 25 14 ZW 1022,1 7 0,0
19.02.2017 23:00:00 8,0 6,5 7,7 14 8 25 14 ZW 1022,1 11 0,0
19.02.2017 22:00:00 8,4 6,4 7,7 14 8 22 12 ZW 1022,3 12 0,0
19.02.2017 21:00:00 8,1 6,1 7,4 11 6 14 8 ZW 1022,2 14 0,0
19.02.2017 20:00:00 8,1 6,1 7,6 11 6 18 10 WZW 1022,2 14 0,0
19.02.2017 19:00:00 8,5 6,2 7,8 11 6 18 10 WZW 1022,0 13 0,0
19.02.2017 18:00:00 8,6 6,6 8,2 11 6 18 10 WZW 1021,6 12 0,0
19.02.2017 17:00:00 9,1 6,5 8,9 14 8 25 14 W 1021,6 13 0,0
19.02.2017 16:00:00 9,3 6,4 9,4 22 12 29 16 W 1021,7 14 0,0
19.02.2017 15:00:00 9,3 6,6 9,1 18 10 25 14 W 1021,6 13 0,0
19.02.2017 14:00:00 9,0 6,8 9,0 14 8 29 16 WZW 1021,9 9 0,0
19.02.2017 13:00:00 8,5 6,3 9,0 22 12 32 18 WZW 1022,0 8 0,0
19.02.2017 12:00:00 7,6 5,5 7,5 25 14 32 18 WZW 1022,4 8 0,0
19.02.2017 11:00:00 6,9 5,1 7,7 18 10 29 16 ZW 1022,5 6 0,0
19.02.2017 10:00:00 5,5 4,1 5,7 22 12 29 16 ZZW 1022,2 6 0,0
19.02.2017 09:00:00 4,2 3,3 3,4 18 10 29 16 ZZW 1022,6 4,1 0,0
19.02.2017 08:00:00 4,0 3,6 3,6 18 10 29 16 ZZW 1022,3 2,4 0,0
19.02.2017 07:00:00 3,8 3,7 3,6 18 10 29 16 ZZW 1022,5 1,6 0,0
19.02.2017 06:00:00 3,1 3,0 2,9 14 8 25 14 ZW 1023,4 0,9 0,0
19.02.2017 05:00:00 2,0 1,9 1,1 7 4 22 12 ZZW 1023,4 1,0 0,0
19.02.2017 04:00:00 1,1 0,9 -1,2 4 2 11 6 ZZW 1023,4 1,7 0,0
19.02.2017 03:00:00 1,6 1,0 -0,3 7 4 18 10 Z 1023,8 3,3 0,0
19.02.2017 02:00:00 2,4 1,1 -1,7 11 6 18 10 ZW 1024,4 6 0,0
19.02.2017 01:00:00 2,6 1,6 -0,4 4 2 14 8 Z 1024,8 4,0 0,0
19.02.2017 00:00:00 3,2 2,0 -1,8 11 6 14 8 ZZW 1025,0 7 0,0
18.02.2017 23:00:00 3,8 2,9 -1,2 4 2 11 6 ZZW 1025,0 6 0,0
18.02.2017 22:00:00 5,2 3,1 -0,4 7 4 11 6 Z 1025,1 10 0,0
18.02.2017 21:00:00 6,1 2,9 1,7 7 4 11 6 Z 1024,9 11 0,0
18.02.2017 20:00:00 6,2 3,0 2,9 11 6 14 8 Z 1025,4 14 0,0
18.02.2017 19:00:00 6,6 3,6 3,6 7 4 18 10 ZZW 1025,4 18 0,0
18.02.2017 18:00:00 8,7 3,9 6,4 11 6 18 10 Z 1025,5 26 0,0
18.02.2017 17:00:00 10,0 4,2 9,0 14 8 25 14 Z 1025,4 18 0,0
18.02.2017 16:00:00 10,5 4,3 10,8 18 10 25 14 ZW 1025,7 23 0,0
18.02.2017 15:00:00 10,0 5,6 10,3 14 8 22 12 ZW 1026,1 10 0,0
18.02.2017 14:00:00 10,2 6,0 12,5 7 4 14 8 ZW 1026,5 7 0,0
18.02.2017 13:00:00 8,9 6,3 11,3 11 6 14 8 Z 1027,2 5 0,0
18.02.2017 12:00:00 7,0 6,3 8,1 11 6 14 8 ZZO 1027,7 2,3 0,0
18.02.2017 11:00:00 5,9 5,8 7,2 7 4 11 6 Z 1027,7 0,2 0,0
18.02.2017 10:00:00 5,1 5,0 5,8 4 2 14 8 ZZW 1027,4 0,1 0,0
18.02.2017 09:00:00 4,4 4,3 3,9 11 6 18 10 ZW 1027,4 0,1 0,0
18.02.2017 08:00:00 4,2 4,0 2,9 7 4 14 8 ZO 1027,1 0,1 0,0
18.02.2017 07:00:00 4,7 4,5 3,4 7 4 11 6 ZZO 1027,0 1,5 0,0
18.02.2017 06:00:00 4,6 4,5 3,6 4 2 11 6 ZW 1027,3 1,3 0,0
18.02.2017 05:00:00 4,7 4,5 4,3 4 2 7 4 Z 1027,4 2,0 0,0
18.02.2017 04:00:00 4,5 4,3 4,3 4 2 7 4 Z 1027,6 2,1 0,0
18.02.2017 03:00:00 4,5 4,3 4,2 4 2 4 2 ZZO 1027,9 2,5 0,0
18.02.2017 02:00:00 4,3 4,0 4,0 0 0 4 2 N 1028,1 3,3 0,0
18.02.2017 01:00:00 3,9 3,7 3,4 0 0 4 2 N 1028,4 1,9 0,0
18.02.2017 00:00:00 3,9 3,8 2,2 0 0 4 2 N 1028,4 0,7 0,0
17.02.2017 23:00:00 4,4 4,2 1,8 4 2 7 4 Z 1028,5 2,0 0,0
17.02.2017 22:00:00 6,1 5,6 4,7 4 2 7 4 WZW 1028,5 4,3 0,0
17.02.2017 21:00:00 6,5 5,8 6,0 7 4 7 4 NW 1028,6 6 0,0
17.02.2017 20:00:00 6,9 5,8 6,1 4 2 7 4 NNW 1028,4 8 0,0
17.02.2017 19:00:00 7,2 6,1 6,5 4 2 7 4 NW 1028,2 10 0,0
17.02.2017 18:00:00 7,4 6,0 6,8 7 4 14 8 NW 1027,7 11 0,0
17.02.2017 17:00:00 8,3 6,5 7,8 11 6 18 10 NW 1027,5 14 0,0
17.02.2017 16:00:00 8,9 6,8 9,4 14 8 22 12 NW 1027,6 14 0,0
17.02.2017 15:00:00 9,0 6,9 9,5 14 8 25 14 NW 1027,6 18 0,0
17.02.2017 14:00:00 8,9 6,8 9,3 18 10 25 14 WNW 1027,6 20 0,0
17.02.2017 13:00:00 8,9 6,9 8,9 18 10 25 14 WNW 1027,7 20 0,0
17.02.2017 12:00:00 8,6 6,5 8,7 18 10 29 16 W 1027,6 21 0,0
17.02.2017 11:00:00 8,3 6,6 8,3 14 8 25 14 W 1027,4 17 0,0
17.02.2017 10:00:00 7,8 6,5 7,3 18 10 25 14 W 1027,0 13 0,3
17.02.2017 09:00:00 6,8 5,8 6,1 14 8 18 10 WZW 1026,8 10 0,3
17.02.2017 08:00:00 5,7 5,0 5,4 14 8 18 10 WZW 1026,5 6 0,0
17.02.2017 07:00:00 5,3 4,6 4,3 14 8 22 12 ZW 1026,4 6 0,0
17.02.2017 06:00:00 5,9 5,0 5,4 18 10 25 14 WZW 1026,4 8 0,0
17.02.2017 05:00:00 6,2 5,2 5,3 18 10 22 12 ZW 1026,5 8 0,0
17.02.2017 04:00:00 6,0 5,2 5,3 14 8 25 14 ZW 1026,8 6 0,0
17.02.2017 03:00:00 6,0 5,3 5,0 18 10 22 12 ZW 1027,1 6 0,0
17.02.2017 02:00:00 6,4 5,4 5,2 18 10 22 12 ZW 1027,3 8 0,0
17.02.2017 01:00:00 6,8 5,7 5,9 14 8 22 12 ZW 1027,6 9 0,0
17.02.2017 00:00:00 6,3 5,4 5,2 14 8 18 10 ZW 1028,0 9 0,0
16.02.2017 23:00:00 6,4 5,5 5,8 11 6 18 10 WZW 1028,3 11 0,0
16.02.2017 22:00:00 6,9 5,6 6,1 11 6 18 10 WZW 1028,4 14 0,0
16.02.2017 21:00:00 7,2 5,7 6,3 14 8 18 10 WZW 1028,5 16 0,0
16.02.2017 20:00:00 7,5 5,9 6,2 14 8 18 10 WZW 1028,6 14 0,0
16.02.2017 19:00:00 6,1 4,8 3,9 7 4 14 8 WZW 1028,7 12 0,0
16.02.2017 18:00:00 8,5 5,9 6,5 11 6 14 8 W 1028,5 22 0,0
16.02.2017 17:00:00 10,3 6,8 9,7 11 6 25 14 W 1028,6 17 0,0
16.02.2017 16:00:00 10,6 7,0 11,5 14 8 25 14 ZZW 1028,6 15 0,0
16.02.2017 15:00:00 10,5 7,5 10,3 14 8 22 12 ZZW 1029,1 11 0,0
16.02.2017 14:00:00 8,9 7,1 9,4 18 10 29 16 WZW 1029,8 9 0,0
16.02.2017 13:00:00 8,0 7,0 8,3 14 8 25 14 ZW 1030,3 5 0,0
16.02.2017 12:00:00 7,3 6,8 8,0 14 8 29 16 ZW 1030,7 3,4 0,0
16.02.2017 11:00:00 6,7 6,5 7,0 18 10 22 12 ZW 1030,9 3,3 0,0

tt = temperatuur
td = dauwpunt
tt 5cm = temperatuur 5cm
ff = windsnelheid
fx = windstoten
dd = windrichting
ppp = luchtdruk
vv = zicht
rr = neerslag

Weerstations in de omgeving